Location: ?????
(33.2320°N, 35.7557°E)
Time: 09:34:44
(UTC+00:00)

Daily predictions for brighter satellites

Satellite Brightness Start Highest point End
(mag) Time Altitude Azimuth Time Altitude Azimuth Time Altitude Azimuth
FALCON 9 R/B 3.8 16:11:59 10° WSW 16:17:45 64° S 16:49:45 12° E
CZ-4 R/B 1.5 16:15:14 10° S 16:19:07 75° WSW 16:22:59 10° NNW
STARLINK-1158 4.3 16:16:34 10° NW 16:20:37 55° SW 16:24:39 10° SSE
STARLINK-1178 4.5 16:18:24 10° NW 16:22:27 51° SW 16:26:29 10° SSE
Cosmos 1470 4.5 16:24:59 10° ESE 16:26:53 13° E 16:28:48 10° ENE
CZ-2C R/B 4.2 16:24:38 10° ESE 16:28:29 22° ENE 16:32:13 10° NNE
Meteor 1-22 Rocket 4.3 16:26:03 10° SSE 16:31:10 49° E 16:36:14 10° NNE
CSL-04 Debris 4.2 16:27:01 10° SSE 16:32:31 89° ENE 16:38:01 10° NNW
Cosmos 1271 Rocket 2.8 16:29:13 10° NNW 16:32:58 76° W 16:36:41 10° S
Cosmos 494 Rocket 3.9 16:32:40 10° SSW 16:37:47 85° ESE 16:42:58 10° NNE
GOES 2 Rocket 3.6 16:33:55 10° WSW 16:37:58 46° S 16:41:55 14° ESE
Cosmos 1939 Rocket 3.6 16:35:40 10° S 16:39:36 55° W 16:43:29 10° NNW
USA 229 DEB 4.2 16:33:45 10° NW 16:41:10 75° WSW 16:48:48 10° SSE
USA 229 4.2 16:33:51 10° NW 16:41:16 76° WSW 16:48:55 10° SSE
Cosmos 1733 3.1 16:40:15 10° S 16:43:58 65° E 16:47:42 10° NNE
USA 81 4.1 16:40:44 10° N 16:45:55 57° E 16:51:04 10° SSE
Cosmos 1452 Rocket 3.9 16:40:43 10° NNW 16:45:57 69° WSW 16:51:11 10° S
Cosmos 371 Rocket 3.2 16:41:44 10° NNW 16:46:35 81° ENE 16:51:25 10° SSE
Abrixas rocket 1.8 16:45:29 10° SW 16:48:26 74° SE 16:50:53 14° NE
NOSS 3-1 (A) 4.2 16:41:07 10° NNW 16:49:09 85° ENE 16:58:03 10° SSE
FREGAT/IRIS 3.5 16:49:50 22° E 16:50:13 23° ENE 16:52:27 10° NNE
S3M 4.2 16:45:00 10° S 16:51:19 82° W 16:57:45 10° N
Cosmos 1674 2.8 16:53:17 10° N 16:57:02 76° W 17:00:43 10° S
Ariane Rocket 3.0 16:52:49 10° SSE 16:57:49 61° ENE 17:02:48 10° N
SL-14 R/B 4.0 16:54:38 10° NNE 16:58:17 32° E 17:00:03 22° SE
Centaur D AC-28 3.9 16:55:55 10° WSW 16:58:28 15° SSW 17:00:40 10° S
Cosmos 1943 Rocket 4.1 16:57:32 10° NE 16:59:01 11° NE 16:59:46 11° ENE
Cosmos 1766 4.3 16:55:23 10° SSW 16:59:14 49° W 17:03:07 10° N
KORONAS-FOTON 3.9 16:56:06 10° N 16:59:55 78° W 17:03:41 10° S
OAO 3 Copernicus 4.4 16:56:53 10° W 17:01:55 75° N 17:05:17 21° ENE
Cosmos 1386 Rocket 4.3 16:57:05 10° N 17:03:08 82° E 17:09:08 10° S
SL-08 ROCKET BODY 4.3 16:58:03 10° N 17:04:10 82° E 17:10:09 10° S
Cosmos 1455 Rocket 3.2 17:00:05 10° SSW 17:04:22 73° W 17:08:43 10° N
SL-16 R/B 2.2 17:00:15 10° SSW 17:05:54 88° WNW 17:11:36 10° NNE
Cosmos 1110 Rocket 3.9 17:06:03 10° NNW 17:11:17 71° ENE 17:15:24 16° SSE
ARGOS Delta rocket 3.9 17:06:52 10° SSE 17:11:49 89° ENE 17:17:04 10° N
Cosmos 332 Rocket 4.1 17:09:07 10° NNW 17:14:01 71° WSW 17:18:53 10° S
ATLAS 3B CENTAUR R/B 3.4 17:10:16 10° W 17:14:31 19° SW 17:16:45 12° S
Aureole 3 4.3 17:16:24 28° ENE 17:16:24 28° ENE 17:19:26 10° NNE
BREEZE-M DEB (TANK) 4.4 17:07:27 10° WSW 17:15:39 37° NW 17:18:42 10° NNE
Cosmos 1953 4.3 17:18:18 15° NE 17:18:18 15° NE 17:19:09 10° NNE
OAO 3 Rocket 4.4 17:12:43 10° W 17:17:04 34° SSW 17:19:28 21° SSE
Atlas Centaur 2 4.2 17:15:09 10° WSW 17:17:43 13° SW 17:20:05 10° S
Cosmos 1892 Rocket 4.1 17:13:30 10° NNW 17:17:55 61° W 17:22:19 10° S
USA 186 1.8 17:17:12 31° SSE 17:18:43 80° E 17:22:09 10° N
Cosmos 1626 Rocket 3.9 17:15:30 10° N 17:19:37 39° E 17:20:03 38° E
H-2A R/B 2.0 17:16:16 10° SSE 17:21:39 87° ENE 17:26:55 10° NNW
ATLAS 5 CENTAUR R/B 3.9 17:17:08 10° SSW 17:22:26 27° SE 17:25:58 24° ESE
Cosmos 1626 1.9 17:21:20 10° N 17:25:02 71° E 17:25:44 53° SE
Delta 2 Rocket 3.7 17:20:30 10° WNW 17:25:13 82° SSW 17:27:00 41° ESE
Okean 1-7 Rocket 4.1 17:21:13 10° NNW 17:25:32 58° W 17:29:49 10° S
Cosmos 1602 Rocket 4.2 17:23:02 10° NNE 17:26:44 36° ENE 17:26:44 36° ENE
DMSP B5D2-2 4.1 17:23:53 10° NNE 17:28:58 53° E 17:34:03 10° S
USA 234 4.1 17:23:57 10° NNE 17:30:12 51° NW 17:36:28 10° WSW
Cosmos 2297 3.7 17:31:44 10° NNW 17:37:23 64° ENE 17:38:57 45° SE
CZ-2C R/B 3.9 17:36:19 10° N 17:41:03 74° WNW 17:45:41 10° SSW
Cosmos 1302 Rocket 3.9 17:43:35 10° NNW 17:48:52 72° ENE 17:49:27 65° ESE
ARGOS 3.5 17:44:32 16° S 17:48:52 62° W 17:54:14 10° NNW
Cosmos 2278 Rocket 4.3 17:44:53 10° NW 17:49:22 25° WSW 17:53:50 10° SSW
CZ-2C R/B 2.4 17:44:49 10° NNE 17:49:59 72° ESE 17:51:06 54° SSE
Cosmos 2251 Rocket 3.4 17:46:15 10° S 17:51:33 75° ESE 17:56:55 10° NNE
OAO 2 Rocket 4.2 17:54:51 10° W 17:59:32 37° SSW 17:59:35 37° SSW
MetOp-A 4.0 18:01:07 70° S 18:01:48 89° WSW 18:07:10 10° NNW
SL-08 RB Rocket 4.3 18:02:47 47° SW 18:03:33 53° W 18:07:59 10° NNW
Resurs 1-3 4.3 18:07:20 49° NNW 18:07:20 49° NNW 18:10:34 10° NNW
SJ-6B 4.4 18:06:23 30° WSW 18:07:14 33° W 18:10:57 10° NNW
CZ-2C R/B 4.4 18:03:46 12° SSW 18:08:08 34° W 18:12:39 10° NNW
Cosmos 967 Rocket 4.4 18:05:51 10° SSW 18:12:14 86° ESE 18:18:45 10° NNE
Resurs 01 Rocket 3.1 18:15:31 30° N 18:15:31 30° N 18:17:46 10° N
IRIDIUM 104 4.5 18:10:52 10° N 18:15:55 71° WNW 18:15:55 71° WNW
Cosmos 2369 Rocket 3.4 18:12:35 10° N 18:16:01 31° NNE 18:16:01 31° NNE
Nadezhda 1 Rocket 4.5 18:21:45 49° NNE 18:21:45 49° NNE 18:26:24 10° NNE
SPOT 3 Rocket 4.2 18:20:04 47° SW 18:20:44 50° W 18:25:49 10° NNW
Cosmos 2074 Rocket 4.3 18:36:34 10° NNW 18:42:01 62° NW 18:42:01 62° NW
Cosmos 1943 Rocket 3.2 18:37:53 10° NNW 18:41:19 40° NNW 18:41:19 40° NNW
ATLAS 2AS CENTAUR R/B 4.3 19:06:07 10° NNW 19:10:15 26° NNE 19:10:15 26° NNE
